N1JOT Weather Reports


Display with metric or nautical units.
time (UTC)temp
F
wind
direction
speed
MPH
gust
MPH
rain 1hr
in
rain 24hr
in
rain mn
in
humidity
%
barometer
mb
20260902065605 59 0 0.0 3.0 0.00 0.12 0.00 95 1020.7
20260902065100 59 55 0.0 3.0 0.00 0.12 0.00 95 1020.7
20260902064603 59 0 0.0 2.0 0.00 0.12 0.00 95 1020.7
20260902064100 59 0 0.0 2.0 0.00 0.12 0.00 95 1020.7
20260902063559 60 0 0.0 2.0 0.00 0.12 0.00 95 1020.7
20260902063106 60 0 0.0 0.0 0.00 0.12 0.00 95 1020.6
20260902062600 60 0 0.0 0.0 0.00 0.12 0.00 95 1020.7
20260902062059 60 0 0.0 0.0 0.00 0.12 0.00 95 1020.8
20260902061618 59 0 0.0 0.0 0.00 0.12 0.00 95 1020.8
20260902061101 60 0 0.0 0.0 0.00 0.12 0.00 95 1020.7
20260902060559 59 0 0.0 0.0 0.00 0.12 0.00 95 1020.9
20260902060115 60 0 0.0 0.0 0.00 0.12 0.00 95 1020.9
20260902055558 59 0 0.0 0.0 0.00 0.12 0.00 95 1020.9
20260902055059 59 0 0.0 0.0 0.00 0.12 0.00 95 1020.8
20260902054600 59 0 0.0 0.0 0.00 0.12 0.00 95 1020.9
20260902054055 59 0 0.0 2.0 0.00 0.12 0.00 95 1020.8
20260902053558 59 0 0.0 2.0 0.00 0.12 0.00 95 1020.7
20260902053103 59 0 0.0 2.0 0.00 0.12 0.00 95 1020.5
20260902052600 59 0 0.0 1.0 0.00 0.12 0.00 95 1020.6
20260902052059 59 0 0.0 1.0 0.00 0.12 0.00 95 1020.7
20260902051613 60 0 0.0 1.0 0.00 0.12 0.00 95 1020.7
20260902051100 60 0 0.0 1.0 0.00 0.12 0.00 95 1020.5
20260902050556 60 0 0.0 1.0 0.00 0.12 0.00 95 1020.7
20260902050101 60 0 0.0 1.0 0.00 0.12 0.00 95 1020.8
20260902045557 60 0 0.0 1.0 0.00 0.12 0.00 95 1020.6
20260902045059 60 0 0.0 1.0 0.00 0.12 0.00 95 1020.5
20260902044610 60 0 0.0 1.0 0.00 0.12 0.00 95 1020.5
20260902044057 60 0 0.0 0.0 0.00 0.12 0.00 95 1020.6
20260902043556 60 0 0.0 0.0 0.00 0.12 0.00 95 1020.4
20260902043103 60 0 0.0 0.0 0.00 0.12 0.00 95 1020.2
20260902042559 60 0 0.0 0.0 0.00 0.12 0.00 95 1020.1
20260902042100 60 0 0.0 0.0 0.00 0.12 0.00 95 1020.0
20260902041605 60 0 0.0 0.0 0.00 0.12 0.00 95 1020.0
20260902041059 60 0 0.0 0.0 0.00 0.12 0.00 95 1019.9
20260902040559 60 0 0.0 0.0 0.00 0.12 0.00 95 1019.9
20260902040106 60 0 0.0 1.0 0.00 0.12 0.00 95 1020.0
20260902035556 60 0 0.0 1.0 0.00 0.12 0.12 95 1019.9
20260902035059 60 0 0.0 0.0 0.00 0.12 0.12 94 1019.8
20260902034606 60 0 0.0 1.0 0.00 0.12 0.12 94 1019.9
20260902034059 60 0 0.0 1.0 0.00 0.12 0.12 94 1019.9
20260902033559 60 0 0.0 1.0 0.00 0.12 0.12 94 1019.8
20260902033111 60 0 0.0 2.0 0.00 0.12 0.12 94 1019.8
20260902032603 61 0 0.0 3.0 0.00 0.12 0.12 95 1019.6
20260902032059 60 0 0.0 3.0 0.00 0.12 0.12 94 1019.6
20260902031615 60 0 0.0 4.0 0.00 0.12 0.12 94 1019.6
20260902031059 60 93 0.0 4.0 0.00 0.12 0.12 95 1019.6
20260902030600 60 94 1.0 3.0 0.00 0.12 0.12 95 1019.7
20260902030117 60 94 0.0 0.0 0.00 0.12 0.12 95 1019.8
20260902025600 60 0 0.0 0.0 0.00 0.12 0.12 95 1019.9
20260902025100 60 0 0.0 0.0 0.00 0.12 0.12 95 1019.9
20260902024604 60 0 0.0 0.0 0.00 0.12 0.12 95 1019.9
20260902024059 60 0 0.0 1.0 0.00 0.12 0.12 95 1019.9
20260902023601 60 0 0.0 1.0 0.00 0.12 0.12 94 1019.8
20260902023104 60 0 0.0 1.0 0.00 0.12 0.12 94 1019.7
20260902022600 60 0 0.0 0.0 0.00 0.12 0.12 94 1019.7
20260902022101 60 0 0.0 1.0 0.00 0.12 0.12 94 1019.5
20260902021634 60 0 0.0 1.0 0.00 0.12 0.12 94 1019.6
20260902021059 60 0 0.0 1.0 0.00 0.12 0.12 94 1019.6
20260902020601 60 0 0.0 2.0 0.00 0.12 0.12 94 1019.6
20260902020100 60 0 0.0 2.0 0.00 0.12 0.12 94 1019.6
20260902015601 60 0 0.0 2.0 0.00 0.12 0.12 94 1019.7
20260902015105 60 0 0.0 2.0 0.00 0.12 0.12 94 1019.8
20260902014616 60 0 0.0 0.0 0.00 0.12 0.12 94 1019.8
20260902014059 60 0 0.0 0.0 0.00 0.12 0.12 94 1019.6
20260902013559 60 0 0.0 1.0 0.00 0.12 0.12 94 1019.6
20260902013104 61 0 0.0 1.0 0.00 0.12 0.12 94 1019.4
20260902012559 61 0 0.0 0.0 0.00 0.12 0.12 94 1019.4
20260902012059 61 0 0.0 0.0 0.00 0.12 0.12 94 1019.5
20260902011605 61 0 0.0 1.0 0.00 0.12 0.12 94 1019.6
20260902011104 61 0 0.0 1.0 0.00 0.12 0.12 94 1019.7
20260902010601 61 0 0.0 3.0 0.00 0.12 0.12 94 1019.6
20260902010108 61 0 0.0 3.0 0.00 0.12 0.12 94 1019.6
20260902005603 61 0 0.0 3.0 0.00 0.12 0.12 94 1019.6
20260902005100 61 69 1.0 3.0 0.00 0.12 0.12 94 1019.5
20260902004605 61 90 0.0 3.0 0.00 0.12 0.12 94 1019.5
20260902004059 61 0 0.0 0.0 0.00 0.12 0.12 94 1019.5
20260902003559 61 0 0.0 0.0 0.00 0.12 0.12 94 1019.5
20260902003115 61 0 0.0 0.0 0.00 0.12 0.12 94 1019.5
20260902002559 61 0 0.0 0.0 0.00 0.12 0.12 94 1019.4
20260902002059 61 0 0.0 0.0 0.00 0.12 0.12 94 1019.4
20260902001605 61 0 0.0 0.0 0.00 0.12 0.12 94 1019.6
20260902001059 61 0 0.0 0.0 0.00 0.12 0.12 94 1019.6
20260902000601 61 0 0.0 0.0 0.00 0.12 0.12 94 1019.5
20260902000106 61 0 0.0 0.0 0.00 0.12 0.12 94 1019.5
20260901235601 61 0 0.0 0.0 0.00 0.12 0.12 94 1019.3
20260901235059 61 0 0.0 0.0 0.00 0.12 0.12 94 1019.2
20260901234612 61 0 0.0 0.0 0.00 0.12 0.12 93 1019.1
20260901234100 61 0 0.0 0.0 0.00 0.12 0.12 93 1019.2
20260901233600 61 0 0.0 0.0 0.00 0.12 0.12 94 1019.0
20260901233113 61 0 0.0 0.0 0.00 0.12 0.12 93 1019.1
20260901232559 61 0 0.0 0.0 0.00 0.12 0.12 94 1019.1
20260901232103 61 0 0.0 0.0 0.00 0.12 0.12 93 1019.2
20260901231603 61 0 0.0 0.0 0.00 0.12 0.12 93 1019.2
20260901231102 61 0 0.0 3.0 0.00 0.12 0.12 93 1019.2
20260901230559 61 0 0.0 3.0 0.00 0.12 0.12 93 1019.1
20260901230106 61 67 0.0 1.0 0.00 0.12 0.12 93 1019.1
20260901225600 61 0 0.0 3.0 0.00 0.12 0.12 93 1019.0
20260901225059 62 0 1.0 3.0 0.00 0.12 0.12 93 1019.0
20260901224602 62 69 0.0 2.0 0.00 0.12 0.12 93 1018.9
20260901224059 62 0 0.0 3.0 0.00 0.12 0.12 93 1018.9
20260901223600 62 0 0.0 4.0 0.00 0.12 0.12 93 1018.9
20260901223111 62 84 0.0 4.0 0.00 0.12 0.12 93 1018.8
20260901222559 62 76 0.0 4.0 0.01 0.12 0.12 93 1018.8
20260901222059 62 87 1.0 5.0 0.01 0.12 0.12 93 1018.9
20260901221604 62 71 1.0 5.0 0.01 0.12 0.12 93 1019.0
20260901221100 62 61 2.0 5.0 0.01 0.12 0.12 93 1019.0
20260901220559 62 0 0.0 1.0 0.02 0.12 0.12 93 1019.2
20260901220107 62 0 0.0 1.0 0.02 0.12 0.12 93 1019.3
20260901215559 62 0 0.0 1.0 0.02 0.12 0.12 93 1019.3
20260901215059 61 0 0.0 2.0 0.02 0.12 0.12 93 1019.3
20260901214604 61 70 0.0 2.0 0.02 0.12 0.12 93 1019.2
20260901214101 61 0 0.0 2.0 0.02 0.12 0.12 93 1019.2
20260901213559 61 0 0.0 1.0 0.02 0.12 0.12 93 1019.1
20260901213059 61 0 0.0 1.0 0.03 0.12 0.12 93 1019.2
20260901212601 61 0 0.0 1.0 0.02 0.11 0.11 93 1019.2
20260901212100 61 0 0.0 0.0 0.02 0.11 0.11 93 1019.2
20260901211601 61 0 0.0 1.0 0.02 0.11 0.11 92 1019.2
20260901211106 61 0 0.0 1.0 0.02 0.11 0.11 93 1019.1
20260901210559 61 168 0.0 1.0 0.01 0.10 0.10 93 1019.0
20260901210114 61 0 0.0 2.0 0.01 0.10 0.10 92 1018.9
20260901205559 61 0 0.0 2.0 0.01 0.10 0.10 93 1018.8
20260901205059 61 0 0.0 1.0 0.02 0.10 0.10 93 1018.8
20260901204602 60 95 0.0 1.0 0.02 0.10 0.10 92 1018.7
20260901204059 61 0 0.0 0.0 0.02 0.10 0.10 92 1018.7
20260901203600 61 0 0.0 0.0 0.02 0.10 0.10 92 1018.6
20260901203115 61 0 0.0 0.0 0.01 0.09 0.09 92 1018.5
20260901202600 61 0 0.0 0.0 0.01 0.09 0.09 92 1018.5
20260901202101 61 0 0.0 0.0 0.01 0.09 0.09 93 1018.6
20260901201600 61 0 0.0 0.0 0.01 0.09 0.09 92 1018.5
20260901201100 60 0 0.0 0.0 0.01 0.09 0.09 92 1018.5
20260901200559 61 0 0.0 0.0 0.01 0.09 0.09 92 1018.5
20260901200105 61 0 0.0 0.0 0.01 0.09 0.09 92 1018.6
20260901195603 61 0 0.0 0.0 0.01 0.09 0.09 92 1018.5
20260901195100 61 0 0.0 1.0 0.00 0.08 0.08 92 1018.6
20260901194615 61 0 0.0 1.0 0.00 0.08 0.08 92 1018.6
20260901194101 61 0 0.0 1.0 0.00 0.08 0.08 92 1018.7
20260901193559 61 0 0.0 1.0 0.00 0.08 0.08 92 1018.7
20260901193106 62 0 0.0 1.0 0.00 0.08 0.08 92 1018.5
20260901192600 62 0 0.0 1.0 0.00 0.08 0.08 91 1018.4
20260901192100 62 0 0.0 1.0 0.00 0.08 0.08 92 1018.4
20260901191607 62 0 0.0 1.0 0.01 0.08 0.08 92 1018.4
20260901191101 62 95 0.0 3.0 0.01 0.08 0.08 91 1018.5
20260901190604 63 61 0.0 3.0 0.02 0.08 0.08 92 1018.4
20260901190115 63 61 0.0 3.0 0.03 0.08 0.08 92 1018.4
20260901185606 63 0 0.0 2.0 0.05 0.08 0.08 92 1018.2
20260901185059 63 0 0.0 2.0 0.07 0.08 0.08 92 1018.1
20260901184619 62 0 0.0 1.0 0.07 0.08 0.08 92 1018.4
20260901184103 62 0 0.0 1.0 0.07 0.08 0.08 92 1018.4
20260901183600 63 0 0.0 1.0 0.08 0.08 0.08 92 1018.3
20260901183059 63 0 0.0 1.0 0.08 0.08 0.08 92 1018.3
20260901182600 62 0 0.0 2.0 0.08 0.08 0.08 91 1018.4
20260901182100 62 0 0.0 2.0 0.08 0.08 0.08 91 1018.4
20260901181604 62 0 0.0 2.0 0.07 0.07 0.07 91 1018.3
20260901181059 62 0 0.0 1.0 0.07 0.07 0.07 91 1018.2
20260901180601 62 0 0.0 1.0 0.06 0.06 0.06 90 1018.1
20260901180105 62 0 0.0 1.0 0.05 0.05 0.05 89 1018.0
20260901175603 63 0 0.0 1.0 0.03 0.03 0.03 88 1018.0
20260901175100 63 0 0.0 2.0 0.01 0.01 0.01 87 1018.1
20260901174623 63 0 0.0 2.0 0.01 0.01 0.01 86 1018.3
20260901174101 63 0 0.0 2.0 0.01 0.01 0.01 85 1018.4
20260901173600 64 261 0.0 2.0 0.00 0.00 0.00 84 1018.2
20260901173102 64 0 0.0 2.0 0.00 0.00 0.00 83 1018.3
20260901172600 65 0 0.0 3.0 0.00 0.00 0.00 81 1018.3
20260901172100 65 0 0.0 3.0 0.00 0.00 0.00 80 1018.3
20260901171605 66 288 0.0 1.0 0.00 0.00 0.00 78 1018.3
20260901171100 66 0 0.0 3.0 0.00 0.00 0.00 79 1018.2
20260901170601 66 168 0.0 3.0 0.00 0.00 0.00 78 1018.2
20260901165604 66 0 0.0 4.0 0.00 0.00 0.00 80 1018.3
20260901165100 67 0 0.0 4.0 0.00 0.00 0.00 80 1018.2
20260901164606 68 163 0.0 3.0 0.00 0.00 0.00 81 1018.1
20260901164103 68 0 0.0 3.0 0.00 0.00 0.00 82 1018.0
20260901163600 68 289 0.0 3.0 0.00 0.00 0.00 82 1017.9
20260901163104 68 0 0.0 3.0 0.00 0.00 0.00 81 1017.9
20260901162600 68 0 0.0 3.0 0.00 0.00 0.00 80 1017.9
20260901162059 69 0 0.0 3.0 0.00 0.00 0.00 78 1017.9
20260901161614 69 0 1.0 5.0 0.00 0.00 0.00 78 1018.1
20260901161101 69 0 1.0 5.0 0.00 0.00 0.00 79 1018.1
20260901160600 69 188 1.0 5.0 0.00 0.00 0.00 80 1017.9
20260901155600 70 57 0.0 4.0 0.00 0.00 0.00 82 1017.8
20260901155100 69 89 0.0 4.0 0.00 0.00 0.00 81 1018.0
20260901154605 70 0 0.0 3.0 0.00 0.00 0.00 84 1018.1
20260901154100 70 0 0.0 3.0 0.00 0.00 0.00 84 1018.0
20260901153600 70 170 1.0 4.0 0.00 0.00 0.00 82 1018.1
20260901153103 71 222 1.0 4.0 0.00 0.00 0.00 84 1018.1
20260901152559 71 0 1.0 4.0 0.00 0.00 0.00 84 1018.1
20260901152059 71 333 0.0 4.0 0.00 0.00 0.00 85 1018.2
20260901151602 71 0 0.0 4.0 0.00 0.00 0.00 84 1018.1
20260901151102 71 0 1.0 4.0 0.00 0.00 0.00 84 1018.1
20260901150603 71 117 1.0 6.0 0.00 0.00 0.00 85 1018.2
20260901150130 71 0 2.0 6.0 0.00 0.00 0.00 84 1018.2
20260901145602 72 106 1.0 4.0 0.00 0.00 0.00 87 1018.3
20260901145101 70 0 1.0 4.0 0.00 0.00 0.00 88 1018.3
20260901144604 70 96 0.0 4.0 0.00 0.00 0.00 88 1018.2
20260901144102 69 0 2.0 4.0 0.00 0.00 0.00 89 1018.1
20260901143600 69 117 2.0 4.0 0.00 0.00 0.00 89 1018.0
20260901143136 69 104 0.0 1.0 0.00 0.00 0.00 90 1018.2
20260901142559 68 0 0.0 0.0 0.00 0.00 0.00 90 1018.4
20260901142100 68 0 0.0 0.0 0.00 0.00 0.00 90 1018.4
20260901141611 68 0 0.0 0.0 0.00 0.00 0.00 90 1018.4
20260901141100 68 0 0.0 0.0 0.00 0.00 0.00 90 1018.5
20260901140559 67 0 0.0 0.0 0.00 0.00 0.00 89 1018.6
20260901140107 67 0 0.0 0.0 0.00 0.00 0.00 90 1018.7
20260901135601 67 0 0.0 0.0 0.00 0.00 0.00 89 1018.6
20260901135102 67 0 0.0 2.0 0.00 0.00 0.00 90 1018.6
20260901134604 67 0 0.0 2.0 0.00 0.00 0.00 90 1018.3
20260901134104 67 0 0.0 2.0 0.00 0.00 0.00 90 1018.2
20260901133602 67 0 0.0 2.0 0.00 0.00 0.00 90 1018.2
20260901133110 67 70 0.0 2.0 0.00 0.00 0.00 90 1018.3
20260901132600 67 0 1.0 2.0 0.00 0.00 0.00 91 1018.4
20260901132102 66 0 0.0 1.0 0.00 0.00 0.00 91 1018.3
20260901131605 66 0 0.0 0.0 0.00 0.00 0.00 91 1018.6
20260901131100 66 0 0.0 0.0 0.00 0.00 0.00 91 1018.6
20260901130601 66 0 0.0 1.0 0.00 0.00 0.00 91 1018.5
20260901130108 66 0 0.0 1.0 0.00 0.00 0.00 90 1018.4
20260901125600 66 0 0.0 2.0 0.00 0.00 0.00 90 1018.4
20260901125103 66 0 0.0 2.0 0.00 0.00 0.00 90 1018.3
20260901124605 66 0 0.0 0.0 0.00 0.00 0.00 90 1018.3
20260901124100 66 0 0.0 0.0 0.00 0.00 0.00 90 1018.3
20260901123601 66 0 0.0 0.0 0.00 0.00 0.00 90 1018.3
20260901123059 66 0 0.0 0.0 0.00 0.00 0.00 91 1018.3
20260901122601 66 0 0.0 0.0 0.00 0.00 0.00 91 1018.4
20260901122104 66 0 0.0 0.0 0.00 0.00 0.00 91 1018.4
20260901121603 66 0 0.0 0.0 0.00 0.00 0.00 91 1018.3
20260901121101 66 0 0.0 0.0 0.00 0.00 0.00 91 1018.4
20260901120559 66 0 0.0 2.0 0.00 0.00 0.00 91 1018.4
20260901120121 66 0 0.0 2.0 0.00 0.00 0.00 91 1018.3
20260901115600 66 0 0.0 0.0 0.00 0.00 0.00 91 1018.3
20260901115101 66 0 0.0 3.0 0.00 0.00 0.00 91 1018.2
20260901114603 66 0 0.0 3.0 0.00 0.00 0.00 91 1018.0
20260901114100 66 69 0.0 0.0 0.00 0.00 0.00 91 1017.9
20260901113600 65 0 0.0 0.0 0.00 0.00 0.00 91 1018.1
20260901113103 65 0 0.0 0.0 0.00 0.00 0.00 91 1018.2
20260901112600 65 0 0.0 0.0 0.00 0.00 0.00 91 1018.2
20260901112100 65 0 0.0 0.0 0.00 0.00 0.00 91 1018.0
20260901111608 65 0 0.0 0.0 0.00 0.00 0.00 91 1018.2
20260901111101 64 0 0.0 0.0 0.00 0.00 0.00 91 1018.1
20260901110600 64 0 0.0 0.0 0.00 0.00 0.00 91 1018.0
20260901110110 64 0 0.0 0.0 0.00 0.00 0.00 91 1018.0
20260901105601 64 0 0.0 0.0 0.00 0.01 0.00 91 1018.0
20260901105100 64 0 0.0 0.0 0.00 0.01 0.00 91 1018.0
20260901104606 64 0 0.0 0.0 0.00 0.01 0.00 91 1018.0
20260901104101 64 0 0.0 0.0 0.00 0.01 0.00 91 1017.9
20260901103604 64 0 0.0 0.0 0.00 0.01 0.00 91 1017.8
20260901103106 64 0 0.0 0.0 0.00 0.01 0.00 91 1017.8
20260901102600 64 0 0.0 0.0 0.00 0.01 0.00 91 1017.7
20260901102100 64 0 0.0 0.0 0.00 0.01 0.00 91 1017.8
20260901101607 64 0 0.0 0.0 0.00 0.01 0.00 91 1017.7
20260901101100 64 0 0.0 0.0 0.00 0.01 0.00 91 1017.8
20260901100603 64 0 0.0 0.0 0.00 0.01 0.00 91 1017.7
20260901095600 64 0 0.0 0.0 0.00 0.01 0.00 91 1017.7
20260901095101 64 0 0.0 0.0 0.00 0.01 0.00 91 1017.7
20260901094605 64 0 0.0 0.0 0.00 0.01 0.00 91 1017.7
20260901094100 64 0 0.0 0.0 0.00 0.01 0.00 91 1017.7
20260901093600 64 0 0.0 0.0 0.00 0.01 0.00 91 1017.7
20260901093108 64 0 0.0 0.0 0.00 0.01 0.00 91 1017.8
20260901092600 63 0 0.0 0.0 0.00 0.01 0.00 91 1017.8
20260901092100 64 0 0.0 0.0 0.00 0.01 0.00 91 1017.7
20260901091606 63 0 0.0 0.0 0.00 0.01 0.00 91 1017.6
20260901091101 63 0 0.0 0.0 0.00 0.01 0.00 91 1017.7
20260901090558 63 0 0.0 0.0 0.00 0.01 0.00 90 1017.8
20260901085558 64 0 0.0 0.0 0.00 0.01 0.00 90 1017.8
20260901085058 64 0 0.0 0.0 0.00 0.01 0.00 90 1017.8
20260901084606 64 0 0.0 0.0 0.00 0.01 0.00 89 1017.9
20260901084058 64 0 0.0 0.0 0.00 0.01 0.00 89 1017.9
20260901083601 64 0 0.0 0.0 0.00 0.01 0.00 89 1017.9
20260901083104 64 0 0.0 0.0 0.00 0.01 0.00 90 1018.2
20260901082558 64 0 0.0 0.0 0.00 0.01 0.00 90 1018.3
20260901082059 64 0 0.0 0.0 0.00 0.01 0.00 90 1018.4
20260901081602 64 0 0.0 0.0 0.00 0.01 0.00 90 1018.4
20260901081102 64 0 0.0 0.0 0.00 0.01 0.00 90 1018.6
20260901080600 64 0 0.0 1.0 0.00 0.01 0.00 90 1018.5
20260901080105 64 0 0.0 1.0 0.00 0.01 0.00 89 1018.5
20260901075558 64 0 0.0 0.0 0.00 0.01 0.00 89 1018.4
20260901075058 64 0 0.0 0.0 0.00 0.01 0.00 89 1018.4
20260901074604 64 0 0.0 0.0 0.00 0.01 0.00 89 1018.4
20260901074058 64 0 0.0 0.0 0.00 0.01 0.00 89 1018.4
20260901073600 65 0 0.0 0.0 0.00 0.01 0.00 89 1018.4
20260901073103 64 0 0.0 0.0 0.00 0.01 0.00 89 1018.4
20260901072600 64 0 0.0 0.0 0.00 0.01 0.00 89 1018.5
20260901072059 64 0 0.0 1.0 0.00 0.01 0.00 89 1018.5
20260901071628 64 0 0.0 1.0 0.00 0.01 0.00 89 1018.5
20260901071059 64 0 0.0 0.0 0.00 0.01 0.00 89 1018.6
20260901070558 64 0 0.0 0.0 0.00 0.01 0.00 89 1018.6
20260901070103 64 0 0.0 0.0 0.00 0.01 0.00 89 1018.6